1483884001.02,20131,4.5,72590.8,-16.35,-41.61,-44.87,0,*6D
1483884002.23,20132,4.5,72586.8,-16.33,-41.41,-44.79,0,*6B
1483884003.47,20133,4.44,72582.0,-16.33,-41.49,-44.73,0,*68
1483884004.68,20134,4.5,72586.0,-16.33,-41.49,-44.79,0,*65
1483884005.96,20135,4.5,72582.3,-16.33,-41.67,-44.93,0,*6C
1483884007.17,20136,4.44,72586.0,-16.33,-41.73,-45.21,0,*62
1483884008.45,20137,4.44,72580.0,-16.33,-41.67,-44.93,0,*6E
1483884009.68,20138,4.44,72578.0,-16.33,-41.29,-44.73,0,*65
1483884010.89,20139,4.44,72580.0,-16.33,-41.49,-44.79,0,*68
1483884012.13,20140,4.5,72584.8,-16.31,-41.11,-44.61,0,*60
1483884013.4,20141,4.5,72582.5,-16.31,-41.23,-44.53,0,*61
1483884014.63,20142,4.44,72582.3,-16.29,-41.29,-44.73,0,*63
1483884015.9,20143,4.44,72586.0,-16.29,-41.23,-44.73,0,*68
1483884017.16,20144,4.44,72588.8,-16.31,-41.29,-44.73,0,*6C
1483884018.4,20145,4.44,72590.5,-16.29,-41.41,-44.73,0,*6A
1483884019.67,20146,4.5,72602.0,-16.31,-41.49,-44.93,0,*66
1483884020.94,20147,4.5,72604.0,-16.29,-41.23,-44.73,0,*6C
1483884022.21,20148,4.5,72604.5,-16.31,-41.23,-44.79,0,*60
1483884023.47,20149,4.5,72608.8,-16.29,-41.23,-44.67,0,*67
1483884024.74,20150,4.5,72598.3,-16.31,-41.23,-44.79,0,*69
1483884025.98,20151,4.5,72588.8,-16.29,-41.35,-44.87,0,*67
1483884027.23,20152,4.44,72580.0,-16.29,-41.23,-44.87,0,*63
1483884028.47,20153,4.5,72576.8,-16.29,-41.35,-44.87,0,*65
1483884029.77,20154,4.5,72582.3,-16.27,-41.35,-45.07,0,*65
1483884031.04,20155,4.5,72592.0,-16.23,-41.35,-44.87,0,*69
1483884032.27,20156,4.5,72596.5,-16.23,-41.29,-44.99,0,*68
1483884033.56,20157,4.5,72590.8,-16.27,-42.19,-45.81,0,*65
1483884034.81,20158,4.5,72598.8,-16.27,-41.87,-45.41,0,*62
1483884036.05,20159,4.5,72600.8,-16.27,-41.87,-45.53,0,*60
1483884037.34,20160,4.5,72594.0,-16.27,-42.83,-46.41,0,*6D
1483884038.59,20161,4.5,72582.0,-16.23,-42.63,-46.35,0,*65
1483884039.8,20162,4.5,72582.8,-16.29,-42.63,-46.35,0,*6C
1483884041.07,20163,4.5,72580.3,-16.29,-42.57,-46.41,0,*69
1483884042.31,20164,4.5,72586.3,-16.29,-42.69,-46.55,0,*66
1483884043.61,20165,4.44,72588.3,-16.31,-42.31,-46.15,0,*67
1483884044.87,20166,4.5,72600.8,-16.29,-42.25,-46.15,0,*68
1483884046.13,20167,4.5,72608.3,-16.29,-42.57,-46.41,0,*6D
1483884047.41,20168,4.5,72594.8,-16.31,-42.95,-46.83,0,*6B
1483884048.68,20169,4.5,72604.5,-16.31,-42.63,-46.49,0,*65
1483884049.94,20170,4.5,72602.3,-16.31,-42.75,-46.83,0,*6C
1483884051.18,20171,4.5,72592.8,-16.33,-43.75,-47.79,0,*6A
1483884052.43,20172,4.5,72586.5,-16.33,-43.75,-47.79,0,*69
1483884053.67,20173,4.5,72576.0,-16.33,-43.75,-47.79,0,*68
1483884054.92,20174,4.5,72572.5,-16.35,-43.75,-47.65,0,*64
1483884056.18,20175,4.44,72568.5,-16.37,-43.55,-47.79,0,*68
1483884057.4,20176,4.5,72574.3,-16.37,-44.41,-48.49,0,*65
1483884058.66,20177,4.5,72562.8,-16.39,-44.73,-48.97,0,*68
1483884059.91,20178,4.44,72560.3,-16.41,-43.67,-47.51,0,*6F
1483884061.15,20179,4.44,72568.3,-16.41,-42.75,-46.61,0,*6E
1483884062.37,20180,4.5,72586.3,-16.41,-42.63,-46.55,0,*68
1483884063.64,20181,4.5,72580.0,-16.41,-42.45,-46.61,0,*6A
1483884064.87,20182,4.44,72582.3,-16.41,-42.75,-46.83,0,*66
1483884066.16,20183,4.44,72578.8,-16.43,-42.45,-46.41,0,*68
1483884067.44,20184,4.44,72572.3,-16.41,-42.19,-46.15,0,*65
1483884068.73,20185,4.5,72572.0,-16.41,-42.19,-46.15,0,*64
1483884069.98,20186,4.5,72576.3,-16.43,-42.13,-46.01,0,*6A
1483884071.23,20187,4.5,72600.5,-16.41,-41.87,-45.73,0,*61
1483884072.47,20188,4.5,72590.5,-16.41,-42.37,-46.41,0,*64
1483884073.74,20189,4.5,72582.0,-16.41,-42.57,-46.61,0,*61
1483884074.99,20190,4.44,72582.0,-16.39,-42.37,-46.21,0,*64
1483884076.27,20191,4.5,72584.0,-16.39,-41.99,-46.15,0,*65
1483884077.52,20192,4.5,72576.8,-16.41,-41.87,-45.81,0,*68
1483884078.79,20193,4.5,72582.3,-16.39,-41.87,-45.81,0,*66
1483884080.07,20194,4.5,72596.5,-16.37,-41.81,-46.07,0,*64
1483884081.32,20195,4.5,72584.5,-16.39,-42.25,-46.35,0,*67
1483884082.56,20196,4.5,72584.0,-16.37,-41.81,-45.87,0,*6D
1483884083.84,20197,4.5,72584.3,-16.39,-41.87,-45.81,0,*62
1483884085.12,20198,4.5,72584.8,-16.39,-41.87,-45.81,0,*6D
1483884086.45,20199,4.5,72578.3,-16.37,-41.99,-46.07,0,*60
1483884087.58,20200,4.5,72576.0,-16.37,-41.99,-45.95,0,*6B
1483884088.86,20201,4.5,72570.5,-16.37,-42.19,-46.27,0,*6B
1483884090.11,20202,4.5,72558.0,-16.37,-42.13,-46.15,0,*63
1483884091.36,20203,4.5,72562.5,-16.37,-41.99,-46.15,0,*63
1483884092.63,20204,4.5,72554.0,-16.37,-42.19,-46.27,0,*6E
1483884093.91,20205,4.5,72552.5,-16.37,-42.31,-46.27,0,*65
1483884095.15,20206,4.5,72552.0,-16.37,-42.31,-46.35,0,*65
1483884096.37,20207,4.5,72560.5,-16.37,-42.13,-46.35,0,*64
1483884097.63,20208,4.5,72572.5,-16.35,-42.13,-46.35,0,*69
1483884098.93,20209,4.5,72564.5,-16.35,-42.31,-46.49,0,*63
1483884100.22,20210,4.5,72574.0,-16.39,-42.45,-46.61,0,*6E
1483884101.5,20211,4.5,72582.3,-16.35,-41.99,-46.15,0,*62
1483884102.74,20212,4.5,72572.5,-16.37,-42.37,-46.69,0,*6F
1483884104.04,20213,4.5,72576.5,-16.35,-42.19,-46.49,0,*62
1483884105.32,20214,4.5,72586.8,-16.35,-41.99,-46.15,0,*67
1483884106.62,20215,4.5,72596.5,-16.35,-41.93,-46.15,0,*6C
1483884107.87,20216,4.5,72592.5,-16.35,-42.37,-46.55,0,*66
1483884109.12,20217,4.5,72592.0,-16.33,-42.25,-46.49,0,*6F
1483884110.42,20218,4.5,72590.8,-16.35,-42.19,-46.49,0,*69
1483884111.69,20219,4.5,72590.0,-16.33,-42.05,-46.27,0,*6B
1483884112.96,20220,4.5,72588.5,-16.35,-42.31,-46.55,0,*65
1483884114.26,20221,4.5,72582.3,-16.35,-42.57,-46.89,0,*65
1483884115.51,20222,4.5,72576.8,-16.33,-42.13,-46.49,0,*6C
1483884116.76,20223,4.5,72580.0,-16.35,-42.13,-46.35,0,*60
1483884118.03,20224,4.5,72576.0,-16.35,-42.19,-46.35,0,*6D
1483884119.3,20225,4.5,72568.3,-16.35,-42.57,-46.75,0,*62
1483884120.58,20226,4.5,72570.3,-16.35,-42.13,-46.27,0,*66
1483884121.85,20227,4.5,72576.3,-16.35,-42.19,-46.55,0,*68
1483884123.1,20228,4.5,72576.8,-16.33,-42.13,-46.41,0,*6E
1483884124.37,20229,4.5,72578.5,-16.35,-42.31,-46.55,0,*6C
1483884125.62,20230,4.5,72582.3,-16.33,-42.13,-46.41,0,*67
1483884126.87,20231,4.5,72576.5,-16.33,-42.25,-46.69,0,*69
1483884128.14,20232,4.5,72578.0,-16.35,-42.19,-46.55,0,*6C
1483884129.41,20233,4.5,72582.3,-16.33,-41.93,-46.41,0,*6F
1483884130.68,20234,4.5,72576.3,-16.33,-42.05,-46.41,0,*64
1483884131.93,20235,4.5,72572.5,-16.33,-42.25,-46.49,0,*6F
1483884133.23,20236,4.5,72568.0,-16.35,-42.19,-46.49,0,*65
1483884134.51,20237,4.5,72566.8,-16.35,-42.19,-46.55,0,*69
1483884135.73,20238,4.5,72564.3,-16.33,-41.87,-46.21,0,*67
1483884137.0,20239,4.5,72578.0,-16.33,-42.05,-46.41,0,*69
1483884138.27,20240,4.5,72574.8,-16.33,-42.31,-46.69,0,*6A
1483884139.56,20241,4.5,72574.0,-16.35,-42.31,-46.69,0,*6D
1483884140.81,20242,4.5,72580.5,-16.33,-42.25,-46.69,0,*6D
1483884142.06,20243,4.5,72568.3,-16.35,-42.51,-46.75,0,*64
1483884143.33,20244,4.5,72568.8,-16.35,-42.37,-46.69,0,*6E
1483884144.57,20245,4.5,72576.0,-16.35,-42.37,-46.55,0,*60
1483884145.87,20246,4.5,72574.3,-16.35,-41.93,-46.27,0,*6B
1483884147.15,20247,4.5,72562.3,-16.35,-42.19,-46.55,0,*6E
1483884148.42,20248,4.5,72560.8,-16.33,-41.93,-46.27,0,*63
1483884149.69,20249,4.5,72568.5,-16.35,-41.61,-46.07,0,*6B
1483884150.91,20250,4.5,72568.3,-16.33,-41.61,-45.95,0,*6D
1483884152.18,20251,4.5,72570.5,-16.33,-42.05,-46.27,0,*67
1483884153.45,20252,4.5,72562.3,-16.33,-42.05,-46.27,0,*64
1483884154.68,20253,4.5,72564.3,-16.33,-41.73,-46.01,0,*63
1483884155.95,20254,4.5,72560.3,-16.31,-41.73,-46.07,0,*60
1483884157.22,20255,4.5,72564.0,-16.31,-41.73,-46.27,0,*63
1483884158.49,20256,4.5,72584.8,-16.33,-42.05,-46.27,0,*60
1483884159.71,20257,4.5,72584.0,-16.29,-41.87,-46.21,0,*65
1483884161.01,20258,4.5,72578.5,-16.31,-42.05,-46.27,0,*6C
1483884162.31,20259,4.5,72572.3,-16.31,-41.93,-46.27,0,*61
1483884163.6,20260,4.5,72578.5,-16.31,-42.05,-46.41,0,*67
1483884164.9,20261,4.5,72586.0,-16.31,-41.93,-46.27,0,*6A
1483884166.14,20262,4.5,72588.5,-16.31,-41.73,-46.21,0,*61
1483884167.39,20263,4.5,72594.0,-16.31,-41.73,-46.01,0,*62
1483884168.64,20264,4.5,72578.3,-16.31,-41.73,-46.01,0,*65
1483884169.91,20265,4.5,72578.3,-16.31,-41.93,-46.21,0,*68
1483884171.16,20266,4.5,72582.0,-16.29,-42.05,-46.35,0,*6B
1483884172.43,20267,4.5,72582.5,-16.31,-41.93,-46.21,0,*6A
1483884173.64,20268,4.5,72582.3,-16.29,-41.49,-45.95,0,*67
1483884174.89,20269,4.5,72574.8,-16.29,-41.81,-45.95,0,*62
1483884176.16,20270,4.5,72574.3,-16.29,-41.67,-45.81,0,*67
1483884177.4,20271,4.5,72582.0,-16.29,-41.67,-45.95,0,*63
1483884178.65,20272,4.5,72586.5,-16.29,-41.49,-45.81,0,*69
1483884179.89,20273,4.5,72590.0,-16.29,-42.37,-46.61,0,*6F
1483884181.13,20274,4.5,72586.8,-16.29,-41.99,-46.41,0,*6D
1483884182.38,20275,4.5,72590.0,-16.29,-42.19,-46.35,0,*64
1483884183.62,20276,4.5,72592.5,-16.27,-42.37,-46.75,0,*61
1483884184.88,20277,4.5,72582.5,-16.27,-42.37,-46.61,0,*65
1483884186.15,20278,4.5,72588.5,-16.27,-42.25,-46.61,0,*69
1483884187.39,20279,4.5,72586.5,-16.29,-42.37,-46.61,0,*65
1483884188.66,20280,4.5,72590.8,-16.29,-42.69,-47.23,0,*6F
1483884189.95,20281,4.5,72584.5,-16.31,-42.45,-46.89,0,*68
1483884191.22,20282,4.5,72562.3,-16.31,-42.13,-46.61,0,*6E
1483884192.49,20283,4.5,72588.3,-16.29,-42.19,-46.41,0,*6E
1483884193.74,20284,4.5,72590.3,-16.29,-42.05,-46.35,0,*67
1483884194.99,20285,4.5,72604.0,-16.31,-42.51,-46.83,0,*63
1483884196.26,20286,4.5,72604.8,-16.29,-42.45,-46.89,0,*66
1483884197.5,20287,4.5,72594.3,-16.31,-42.89,-47.31,0,*6C
1483884198.74,20288,4.5,72598.3,-16.31,-42.89,-47.51,0,*65
1483884199.96,20289,4.5,72598.3,-16.33,-42.51,-47.09,0,*6E
1483884201.19,20290,4.5,72606.0,-16.33,-43.35,-47.93,0,*66
1483884202.44,20291,4.5,72604.8,-16.35,-43.61,-48.21,0,*66
1483884203.71,20292,4.5,72594.8,-16.35,-43.95,-48.69,0,*62
1483884204.93,20293,4.5,72588.3,-16.37,-43.75,-48.49,0,*6D
1483884206.2,20294,4.5,72592.5,-16.37,-44.01,-48.69,0,*6C
1483884207.48,20295,4.5,72588.5,-16.39,-43.61,-48.13,0,*6F
1483884208.72,20296,4.5,72582.3,-16.41,-43.87,-48.35,0,*6F
1483884209.97,20297,4.5,72572.0,-16.41,-44.01,-48.63,0,*64
1483884211.24,20298,4.5,72570.3,-16.43,-44.79,-49.53,0,*64
1483884212.45,20299,4.5,72570.3,-16.45,-44.99,-49.67,0,*6A
1483884213.71,20300,4.5,72566.5,-16.49,-44.79,-49.39,0,*62
1483884214.99,20301,4.5,72564.0,-16.53,-44.47,-49.19,0,*67
1483884216.26,20302,4.5,72570.0,-16.51,-44.01,-48.49,0,*60
1483884217.53,20303,4.5,72572.5,-16.51,-43.15,-47.45,0,*60
1483884218.79,20304,4.5,72574.3,-16.53,-42.83,-47.17,0,*6C
1483884220.04,20305,4.5,72576.5,-16.53,-42.63,-47.03,0,*66
1483884221.32,20306,4.5,72590.3,-16.51,-42.51,-46.69,0,*6B
1483884222.58,20307,4.5,72600.3,-16.51,-42.57,-47.09,0,*6B
1483884223.83,20308,4.5,72578.0,-16.53,-43.49,-48.07,0,*69
1483884225.11,20309,4.5,72574.8,-16.53,-43.67,-48.35,0,*65
1483884226.35,20310,4.5,72566.3,-16.53,-43.41,-47.85,0,*6D
1483884227.62,20311,4.5,72562.8,-16.55,-42.95,-47.23,0,*6E
1483884228.89,20312,4.5,72558.0,-16.57,-42.25,-46.61,0,*63
1483884230.15,20313,4.5,72566.8,-16.55,-42.05,-46.41,0,*60
1483884231.4,20314,4.5,72558.5,-16.55,-42.57,-46.83,0,*6E
1483884232.64,20315,4.5,72552.5,-16.55,-42.75,-47.23,0,*64
1483884233.85,20316,4.5,72562.3,-16.55,-42.63,-46.97,0,*6E
1483884235.12,20317,4.5,72550.3,-16.55,-43.09,-47.45,0,*6C
1483884236.38,20318,4.5,72554.5,-16.55,-43.29,-47.71,0,*66
1483884237.59,20319,4.5,72542.3,-16.55,-43.41,-47.65,0,*6C
1483884238.83,20320,4.5,72540.8,-16.55,-42.45,-46.83,0,*6A
1483884240.1,20321,4.5,72556.0,-16.57,-42.45,-46.97,0,*6C
1483884241.33,20322,4.5,72548.3,-16.55,-42.57,-46.97,0,*6E
1483884242.62,20323,4.5,72562.8,-16.57,-42.05,-46.41,0,*61
1483884243.86,20324,4.5,72568.3,-16.57,-41.99,-46.21,0,*66
1483884245.13,20325,4.5,72568.5,-16.55,-42.19,-46.41,0,*68
1483884246.37,20326,4.5,72580.0,-16.55,-42.05,-46.35,0,*65
1483884247.62,20327,4.5,72582.3,-16.55,-41.87,-46.15,0,*6F
1483884248.86,20328,4.5,72586.8,-16.55,-42.05,-46.21,0,*6E
1483884250.09,20329,4.5,72590.0,-16.55,-42.75,-47.03,0,*69
1483884251.33,20330,4.5,72588.8,-16.55,-43.09,-47.51,0,*6C
1483884252.56,20331,4.5,72590.5,-16.55,-43.21,-47.65,0,*60
1483884253.83,20332,4.5,72590.3,-16.55,-43.09,-47.45,0,*6B
1483884255.07,20333,4.5,72586.0,-16.59,-42.83,-47.09,0,*6D
1483884256.32,20334,4.5,72570.0,-16.59,-43.01,-47.37,0,*6C
1483884257.58,20335,4.5,72578.3,-16.57,-42.25,-46.61,0,*66
1483884258.85,20336,4.5,72580.3,-16.57,-42.45,-46.75,0,*66
1483884260.12,20337,4.5,72586.3,-16.59,-42.05,-46.27,0,*6A
1483884261.36,20338,4.5,72582.0,-16.59,-42.13,-46.41,0,*62
1483884262.63,20339,4.5,72578.5,-16.59,-42.45,-46.69,0,*6A
1483884263.88,20340,4.5,72580.8,-16.59,-41.87,-46.07,0,*61
1483884265.13,20341,4.5,72592.0,-16.59,-41.81,-46.01,0,*60
1483884266.38,20342,4.5,72588.5,-16.57,-41.73,-46.01,0,*60
1483884267.65,20343,4.5,72594.8,-16.57,-41.61,-45.81,0,*69
1483884268.89,20344,4.5,72592.5,-16.55,-41.99,-46.15,0,*65
1483884270.15,20345,4.5,72572.8,-16.57,-42.37,-46.61,0,*62
1483884271.42,20346,4.5,72572.5,-16.57,-42.05,-46.21,0,*64
1483884272.64,20347,4.5,72574.0,-16.55,-41.99,-46.21,0,*61
1483884273.85,20348,4.5,72590.3,-16.55,-41.87,-45.95,0,*6D
1483884275.1,20349,4.5,72580.5,-16.55,-42.19,-46.21,0,*64
1483884276.34,20350,4.5,72578.8,-16.57,-41.87,-45.95,0,*66
1483884277.58,20351,4.5,72568.5,-16.55,-42.57,-46.83,0,*6F
1483884278.85,20352,4.5,72582.8,-16.57,-42.37,-46.41,0,*66
1483884280.08,20353,4.5,72580.0,-16.55,-42.63,-47.03,0,*63
1483884281.32,20354,4.5,72574.3,-16.57,-42.75,-47.17,0,*64
1483884282.56,20355,4.5,72554.5,-16.59,-42.63,-46.69,0,*64
1483884283.83,20356,4.5,72578.8,-16.59,-41.93,-46.07,0,*63
1483884285.1,20357,4.5,72570.3,-16.59,-42.05,-46.07,0,*6E
1483884286.4,20358,4.5,72586.0,-16.57,-41.81,-45.81,0,*6D
1483884287.64,20359,4.5,72584.8,-16.57,-41.87,-45.95,0,*6F
1483884288.9,20360,4.5,72586.0,-16.57,-41.55,-45.67,0,*67
1483884290.14,20361,4.5,72596.5,-16.57,-41.61,-45.67,0,*61
1483884291.38,20362,4.5,72592.0,-16.55,-41.87,-45.81,0,*60
1483884292.62,20363,4.5,72584.5,-16.55,-42.05,-46.21,0,*61
1483884293.86,20364,4.5,72572.8,-16.57,-41.73,-45.95,0,*6A
1483884295.13,20365,4.5,72580.5,-16.59,-41.67,-45.73,0,*68
1483884296.37,20366,4.5,72550.8,-16.59,-41.61,-45.73,0,*6D
1483884297.63,20367,4.5,72572.3,-16.57,-41.55,-45.67,0,*60
1483884298.9,20368,4.5,72564.5,-16.57,-41.55,-45.67,0,*6F
1483884300.14,20369,4.5,72578.5,-16.57,-41.61,-45.67,0,*69
1483884301.4,20370,4.5,72578.8,-16.57,-41.87,-45.73,0,*6C
1483884302.67,20371,4.5,72582.8,-16.57,-41.55,-45.53,0,*60
1483884303.92,20372,4.5,72588.5,-16.57,-41.61,-45.53,0,*64
1483884305.18,20373,4.5,72582.0,-16.57,-41.55,-45.53,0,*62
1483884306.45,20374,4.5,72582.3,-16.55,-41.35,-45.27,0,*62
1483884307.69,20375,4.5,72588.8,-16.55,-41.35,-45.33,0,*66
1483884308.93,20376,4.5,72596.8,-16.55,-41.35,-45.33,0,*65
1483884310.17,20377,4.56,72592.0,-16.55,-41.35,-45.33,0,*64
1483884311.44,20378,4.5,72596.0,-16.57,-41.41,-45.47,0,*69
1483884312.67,20379,4.5,72600.3,-16.53,-41.41,-45.33,0,*6F
1483884313.94,20380,4.5,72600.5,-16.53,-41.55,-45.53,0,*6A
1483884315.2,20381,4.5,72594.5,-16.53,-41.55,-45.33,0,*6D
1483884316.46,20382,4.5,72608.0,-16.53,-41.41,-45.27,0,*6E
1483884317.75,20383,4.5,72610.5,-16.53,-41.55,-45.47,0,*6C
1483884319.01,20384,4.5,72600.0,-16.53,-41.81,-45.67,0,*60
1483884320.28,20385,4.5,72600.3,-16.51,-41.49,-45.27,0,*63
1483884321.54,20386,4.5,72600.3,-16.53,-41.41,-45.47,0,*6C
1483884322.77,20387,4.5,72602.0,-16.53,-41.41,-45.33,0,*6E
1483884324.03,20388,4.5,72602.5,-16.53,-41.35,-45.13,0,*60
1483884325.28,20389,4.5,72596.0,-16.51,-41.17,-44.87,0,*6F
1483884326.54,20390,4.5,72596.3,-16.53,-41.23,-45.13,0,*6E
1483884327.8,20391,4.5,72594.0,-16.51,-41.29,-45.07,0,*62
1483884329.09,20392,4.5,72602.0,-16.53,-41.35,-45.07,0,*6E
1483884330.33,20393,4.5,72604.0,-16.51,-41.29,-44.99,0,*66
1483884331.59,20394,4.5,72612.0,-16.53,-41.61,-45.47,0,*6D
1483884332.87,20395,4.5,72612.5,-16.51,-41.35,-45.21,0,*6F
1483884334.16,20396,4.5,72618.8,-16.51,-41.55,-45.27,0,*6C
1483884335.44,20397,4.5,72620.3,-16.51,-41.55,-45.21,0,*6B
1483884336.68,20398,4.5,72628.3,-16.51,-41.29,-44.99,0,*6D
1483884337.95,20399,4.5,72634.8,-16.51,-41.55,-45.21,0,*65
1483884339.23,20400,4.5,72634.8,-16.51,-41.67,-45.41,0,*65
1483884340.5,20401,4.5,72640.0,-16.49,-41.81,-45.47,0,*63
1483884341.77,20402,4.5,72650.3,-16.51,-41.81,-45.61,0,*6D
1483884343.07,20403,4.5,72654.3,-16.51,-41.81,-45.47,0,*68
1483884344.31,20404,4.5,72642.5,-16.51,-41.29,-44.79,0,*61
1483884345.61,20405,4.5,72632.5,-16.51,-41.93,-45.73,0,*6A
1483884346.87,20406,4.5,72620.3,-16.53,-42.83,-46.75,0,*6C
1483884348.1,20407,4.5,72618.5,-16.53,-43.49,-47.17,0,*6F
1483884349.34,20408,4.5,72598.0,-16.53,-43.49,-47.31,0,*64
1483884350.58,20409,4.5,72588.5,-16.55,-43.49,-47.23,0,*60
1483884351.82,20410,4.5,72580.0,-16.57,-43.49,-47.17,0,*6D
1483884353.06,20411,4.5,72572.0,-16.57,-43.49,-47.17,0,*6C
1483884354.31,20412,4.5,72570.0,-16.57,-43.01,-46.75,0,*66
1483884355.55,20413,4.5,72566.8,-16.57,-42.75,-46.35,0,*61
1483884356.82,20414,4.5,72562.5,-16.57,-42.57,-46.21,0,*63
1483884358.07,20415,4.5,72562.5,-16.59,-42.51,-46.07,0,*6E
1483884359.31,20416,4.5,72560.8,-16.59,-42.51,-46.07,0,*6D
1483884360.56,20417,4.5,72562.3,-16.59,-42.63,-46.27,0,*6F
1483884361.78,20418,4.5,72566.8,-16.59,-42.51,-46.01,0,*65
1483884363.05,20419,4.5,72566.3,-16.61,-42.89,-46.49,0,*66
1483884364.3,20420,4.5,72572.5,-16.61,-42.51,-46.01,0,*65
1483884365.57,20421,4.5,72578.5,-16.59,-42.31,-45.81,0,*62
1483884366.84,20422,4.5,72582.0,-16.61,-42.13,-45.73,0,*67
1483884368.1,20423,4.5,72586.3,-16.61,-42.05,-45.41,0,*60
1483884369.37,20424,4.5,72590.5,-16.61,-41.81,-45.41,0,*68
1483884370.66,20425,4.5,72592.8,-16.61,-42.45,-45.73,0,*63
1483884371.9,20426,4.5,72592.5,-16.59,-42.51,-45.81,0,*63
1483884373.15,20427,4.5,72588.8,-16.59,-42.05,-45.53,0,*6C
1483884374.39,20428,4.5,72582.5,-16.61,-41.87,-45.21,0,*64
1483884375.63,20429,4.5,72580.0,-16.59,-41.81,-45.13,0,*69
1483884376.87,20430,4.5,72580.0,-16.59,-41.67,-44.99,0,*6A
1483884378.11,20431,4.5,72584.5,-16.59,-41.67,-45.13,0,*68
1483884379.35,20432,4.5,72588.8,-16.59,-41.93,-45.21,0,*61
1483884380.6,20433,4.5,72594.3,-16.59,-42.69,-46.21,0,*65
1483884381.88,20434,4.5,72592.5,-16.57,-43.67,-47.03,0,*62
1483884383.18,20435,4.5,72588.0,-16.61,-43.09,-46.41,0,*69
1483884384.45,20436,4.5,72578.5,-16.61,-43.01,-46.41,0,*62
1483884385.72,20437,4.5,72572.3,-16.61,-42.51,-45.81,0,*68
1483884386.97,20438,4.5,72572.3,-16.61,-42.25,-45.53,0,*6B
1483884388.21,20439,4.5,72578.8,-16.61,-42.13,-45.41,0,*6C
1483884389.5,20440,4.5,72578.3,-16.61,-42.45,-45.73,0,*60
1483884390.74,20441,4.56,72588.3,-16.61,-42.13,-45.41,0,*63
1483884391.98,20442,4.5,72588.3,-16.59,-42.05,-45.33,0,*69
1483884393.22,20443,4.5,72586.5,-16.57,-42.25,-45.33,0,*64
1483884394.46,20444,4.5,72578.5,-16.59,-42.31,-45.33,0,*68
1483884395.68,20445,4.5,72578.3,-16.59,-42.25,-45.41,0,*69
1483884396.95,20446,4.5,72570.3,-16.61,-42.51,-45.73,0,*63
1483884398.21,20447,4.5,72568.8,-16.61,-42.05,-45.21,0,*64
1483884399.45,20448,4.5,72572.0,-16.59,-42.05,-45.21,0,*60
1483884400.69,20449,4.5,72572.3,-16.61,-42.25,-45.13,0,*69
1483884401.93,20450,4.5,72574.3,-16.59,-42.05,-45.13,0,*68
1483884403.17,20451,4.5,72572.8,-16.59,-42.45,-45.53,0,*69
1483884404.39,20452,4.5,72566.5,-16.59,-42.63,-45.53,0,*6E
1483884405.66,20453,4.5,72562.5,-16.61,-42.83,-46.01,0,*6E
1483884406.93,20454,4.56,72562.3,-16.59,-42.83,-45.81,0,*69
1483884408.15,20455,4.5,72560.0,-16.59,-42.13,-45.21,0,*6B
1483884409.4,20456,4.5,72560.8,-16.59,-42.69,-45.61,0,*61
1483884410.64,20457,4.5,72564.0,-16.61,-42.25,-44.99,0,*65
1483884411.87,20458,4.5,72576.3,-16.61,-42.25,-45.13,0,*69
1483884413.12,20459,4.5,72568.5,-16.61,-42.25,-44.99,0,*6B
1483884414.35,20460,4.5,72580.8,-16.59,-42.31,-45.13,0,*6C
1483884415.59,20461,4.5,72576.3,-16.59,-42.05,-44.99,0,*69
1483884416.81,20462,4.5,72580.5,-16.59,-42.13,-45.13,0,*6E
1483884418.08,20463,4.5,72580.5,-16.59,-41.93,-44.93,0,*6D
1483884419.32,20464,4.5,72580.5,-16.59,-41.81,-44.79,0,*6D
1483884420.53,20465,4.5,72582.3,-16.59,-41.87,-44.61,0,*63
1483884421.77,20466,4.56,72584.3,-16.59,-41.81,-44.53,0,*67
1483884423.03,20467,4.5,72584.3,-16.59,-41.67,-44.47,0,*6B
1483884424.28,20468,4.5,72576.0,-16.57,-41.73,-44.47,0,*6F
1483884425.54,20469,4.5,72586.0,-16.57,-41.99,-44.67,0,*68
1483884426.8,20470,4.5,72584.0,-16.57,-41.81,-44.53,0,*6E
1483884428.01,20471,4.5,72576.8,-16.55,-41.99,-44.87,0,*6D
1483884429.24,20472,4.5,72580.3,-16.55,-41.99,-44.67,0,*60
1483884430.48,20473,4.56,72584.8,-16.57,-41.87,-44.53,0,*6B
1483884431.69,20474,4.5,72586.3,-16.55,-41.73,-44.41,0,*66
1483884432.9,20475,4.5,72580.3,-16.55,-41.87,-44.53,0,*6F
1483884434.13,20476,4.5,72590.5,-16.57,-41.87,-44.53,0,*6E
1483884435.34,20477,4.5,72592.3,-16.55,-41.99,-44.53,0,*62
1483884436.56,20478,4.5,72590.5,-16.55,-42.25,-44.87,0,*60
1483884437.81,20479,4.5,72584.3,-16.55,-42.95,-45.53,0,*62
1483884439.05,20480,4.5,72588.8,-16.55,-42.83,-45.53,0,*63
1483884440.31,20481,4.5,72584.8,-16.57,-42.95,-45.67,0,*60
1483884441.56,20482,4.56,72594.5,-16.55,-43.49,-46.15,0,*67
1483884442.85,20483,4.5,72576.3,-16.57,-42.83,-45.47,0,*67
1483884444.14,20484,4.56,72584.0,-16.57,-42.45,-44.93,0,*62
1483884445.38,20485,4.5,72586.8,-16.57,-42.63,-45.33,0,*6C
1483884446.64,20486,4.5,72590.8,-16.57,-43.29,-45.95,0,*6C
1483884447.91,20487,4.5,72600.3,-16.57,-43.09,-45.67,0,*62
1483884449.17,20488,4.5,72594.5,-16.57,-42.83,-45.67,0,*6E
1483884450.44,20489,4.5,72584.3,-16.59,-43.09,-45.81,0,*6A
1483884451.68,20490,4.56,72582.5,-16.59,-42.69,-45.21,0,*6F
1483884452.93,20491,4.5,72576.0,-16.59,-42.51,-44.93,0,*6D
1483884454.17,20492,4.56,72578.0,-16.61,-42.51,-44.99,0,*6F
1483884455.41,20493,4.5,72570.5,-16.59,-42.31,-44.79,0,*6D
1483884456.67,20494,4.56,72578.8,-16.59,-42.05,-44.73,0,*67
1483884457.94,20495,4.56,72584.3,-16.59,-42.45,-44.73,0,*62
1483884459.16,20496,4.5,72588.3,-16.59,-42.63,-45.21,0,*63
1483884460.39,20497,4.5,72584.8,-16.59,-42.69,-45.13,0,*69
1483884461.66,20498,4.5,72576.5,-16.59,-42.45,-44.73,0,*6F
1483884462.92,20499,4.5,72570.3,-16.57,-42.19,-44.53,0,*6B
1483884464.17,20500,4.56,72566.8,-16.57,-42.25,-44.87,0,*6C
1483884465.43,20501,4.56,72578.5,-16.57,-42.57,-44.87,0,*68
1483884466.69,20502,4.5,72576.5,-16.57,-42.75,-45.27,0,*60
1483884467.93,20503,4.5,72586.8,-16.57,-42.75,-45.13,0,*66
1483884469.2,20504,4.56,72566.5,-16.57,-43.09,-45.53,0,*6F
1483884470.44,20505,4.5,72562.8,-16.59,-42.69,-45.13,0,*63
1483884471.68,20506,4.56,72570.3,-16.59,-42.69,-44.99,0,*63
1483884472.9,20507,4.56,72576.5,-16.59,-42.25,-44.79,0,*64
1483884474.11,20508,4.5,72574.0,-16.59,-42.63,-45.21,0,*65
1483884475.33,20509,4.56,72572.0,-16.59,-42.51,-44.79,0,*69
1483884476.54,20510,4.5,72584.0,-16.59,-42.25,-44.61,0,*6B
1483884477.78,20511,4.5,72588.5,-16.59,-42.25,-44.47,0,*6E
1483884479.01,20512,4.5,72596.8,-16.57,-42.37,-44.53,0,*65
1483884480.25,20513,4.5,72598.3,-16.57,-42.25,-44.53,0,*67
1483884481.53,20514,4.5,72596.3,-16.57,-42.45,-44.67,0,*61
1483884482.81,20515,4.56,72592.0,-16.57,-42.57,-44.67,0,*63
1483884484.07,20516,4.5,72594.0,-16.57,-42.57,-44.87,0,*6E
1483884485.28,20517,4.5,72592.5,-16.55,-42.25,-44.41,0,*62
1483884486.55,20518,4.5,72590.5,-16.55,-42.19,-44.47,0,*64
1483884487.78,20519,4.56,72592.5,-16.55,-42.37,-44.47,0,*69
1483884489.04,20520,4.5,72592.5,-16.57,-42.95,-45.33,0,*6B
1483884490.34,20521,4.56,72596.3,-16.57,-43.81,-46.15,0,*69
1483884491.61,20522,4.5,72598.8,-16.57,-44.67,-46.97,0,*6F
1483884492.85,20523,4.56,72598.3,-16.59,-44.99,-47.37,0,*6A
1483884494.14,20524,4.56,72598.8,-16.61,-44.47,-46.89,0,*61
1483884495.43,20525,4.56,72602.5,-16.61,-44.33,-46.61,0,*65
1483884496.7,20526,4.56,72616.3,-16.61,-44.27,-46.49,0,*69
1483884497.97,20527,4.5,72616.8,-16.61,-44.27,-46.61,0,*62
1483884499.27,20528,4.5,72610.8,-16.65,-44.01,-46.49,0,*67
1483884500.53,20529,4.56,72588.5,-16.65,-44.13,-46.35,0,*6E
1483884501.77,20530,4.56,72580.3,-16.65,-44.41,-46.75,0,*65
1483884503.06,20531,4.5,72570.0,-16.65,-44.01,-46.27,0,*67
1483884504.35,20532,4.56,72576.0,-16.65,-44.33,-46.69,0,*6F
1483884505.62,20533,4.5,72568.5,-16.69,-45.27,-47.51,0,*6C
1483884506.92,20534,4.56,72562.3,-16.69,-45.27,-47.45,0,*6E
1483884508.19,20535,4.56,72562.3,-16.73,-45.13,-47.45,0,*63
1483884509.41,20536,4.5,72542.8,-16.75,-45.21,-47.31,0,*64